GFSNW_con_lsi_273.txt.gz
Lid_Strength_Index
5 5 4 4 5 7 5 3 6 2 1 5 4 6 6 9 6 4 5 5 6 7 7 7 8 8 7 6 5 7 6 8 10 8 6 5 6 7 7 11 12 10 12 11
5 5 4 4 5 6 6 5 4 2 2 7 6 6 7 6 6 5 6 7 6 6 7 9 7 7 5 5 5 7 6 8 11 9 7 6 7 6 7 7 9 11 12 10
5 5 4 4 5 6 5 5 6 4 3 4 6 7 7 7 6 6 5 6 6 6 7 6 8 7 6 5 5 5 5 7 9 11 9 7 9 8 7 7 11 10 10 9
5 5 5 4 5 6 5 4 6 7 7 7 6 6 7 7 8 6 5 6 6 7 8 7 8 6 6 5 6 5 6 10 8 8 7 7 8 8 8 8 8 10 9 8
5 5 5 5 6 7 4 7 7 5 7 8 8 10 8 8 7 7 7 7 6 6 8 7 8 7 6 7 5 6 6 9 7 9 7 7 8 8 7 7 7 7 7 8
6 5 5 6 6 6 5 5 5 7 8 7 8 7 8 8 7 7 7 7 7 7 7 5 4 4 5 5 6 7 7 8 9 11 8 8 10 8 7 7 6 7 9 6
6 6 6 6 6 7 6 6 7 8 9 8 8 9 8 8 8 8 7 7 8 7 5 5 6 6 7 6 6 5 7 8 9 11 9 15 8 5 6 7 6 6 6 5
7 7 6 6 7 7 6 5 7 7 9 7 8 9 8 8 8 9 8 7 7 5 7 10 10 9 9 8 7 7 6 7 10 12 11 9 8 7 7 7 7 6 7 6
8 8 7 7 7 7 7 5 6 7 9 8 8 9 8 9 8 8 8 7 5 7 9 10 12 12 9 10 8 5 6 6 9 10 13 14 8 6 5 6 11 6 7 7
7 8 8 7 7 7 7 6 4 7 9 7 8 9 9 7 8 9 8 8 8 7 10 11 11 11 9 11 10 11 10 9 11 11 12 9 6 6 5 12 11 6 5 5
7 7 7 7 7 7 7 5 4 7 8 7 7 8 8 8 9 10 8 9 9 10 11 11 11 11 9 10 8 9 10 12 11 10 12 13 5 6 9 7 5 5 5 4
7 7 7 7 7 7 7 7 5 5 8 8 6 6 6 6 6 8 7 8 9 8 9 9 9 10 9 8 11 6 10 8 9 9 11 7 5 6 4 4 5 4 4 3
6 7 7 6 6 7 7 6 5 6 8 8 8 8 6 5 5 5 9 8 7 7 6 8 9 10 8 10 9 8 6 5 8 8 6 7 6 4 4 4 4 3 3 4
6 6 6 6 6 6 6 6 5 6 8 11 8 5 7 6 5 5 5 6 4 5 6 8 9 11 7 10 9 9 8 6 7 7 6 5 4 5 4 4 4 4 3 3
6 6 6 6 6 6 5 5 4 4 7 9 8 6 5 5 5 5 5 5 6 7 8 9 10 8 8 8 8 9 7 7 8 9 5 5 4 3 3 4 4 4 4 4
6 6 6 6 5 5 5 7 5 3 4 8 10 5 6 5 4 5 5 5 5 6 8 8 7 5 6 9 9 6 5 4 4 6 4 4 4 3 3 3 4 3 3 3
5 5 5 5 5 5 6 7 6 5 2 7 9 8 5 5 4 4 5 4 5 5 5 6 6 5 4 7 9 6 4 4 3 3 3 4 3 4 2 2 2 2 2 2
5 4 4 4 4 4 6 4 4 3 5 6 9 8 7 4 6 6 3 5 4 4 5 4 5 5 5 8 5 4 4 3 3 3 3 3 2 2 3 2 2 3 3 3
4 4 3 3 4 6 5 3 3 2 4 8 7 9 8 4 5 5 4 3 7 3 6 6 5 7 8 6 5 4 4 4 4 3 3 3 3 3 3 3 3 3 3 2
3 3 5 7 4 2 2 3 5 5 4 6 8 5 7 4 5 5 5 5 7 8 6 5 7 7 4 4 4 4 3 3 3 4 4 4 4 3 3 3 3 3 3 2
3 5 6 2 2 3 4 6 7 7 8 6 5 5 6 3 6 6 4 6 6 9 7 8 8 9 6 4 4 3 2 3 3 3 2 2 3 3 3 3 2 2 2 2
3 2 1 1 3 5 7 8 7 7 8 5 5 4 4 3 2 5 5 8 7 10 5 8 10 7 5 4 4 3 3 4 4 3 3 3 3 3 3 3 3 2 2 2
-0 2 5 5 5 10 10 11 8 7 5 4 4 5 6 4 4 8 8 10 9 5 8 9 8 5 5 5 4 4 3 3 3 3 2 3 3 2 2 3 2 2 2 2
4 6 10 8 9 7 7 6 6 4 4 4 3 5 7 5 8 7 11 7 7 11 11 10 7 5 4 4 3 4 4 4 4 4 3 3 3 3 2 2 2 3 3 2
5 5 9 7 5 5 4 4 4 3 3 4 4 6 6 7 9 8 8 10 12 10 10 9 6 5 5 5 5 4 4 4 4 4 4 4 4 4 3 3 2 2 2 2
4 4 6 4 5 5 5 4 4 3 3 2 4 7 9 10 9 10 11 11 11 9 8 7 5 4 4 4 4 3 4 4 4 4 4 4 4 4 3 3 2 2 2 3
5 5 3 4 4 5 5 4 4 2 4 6 6 11 9 7 10 10 8 9 7 6 5 4 4 4 4 4 3 4 3 4 5 5 4 4 3 3 3 4 2 2 2 3

GFSNW_con_lsi_276.txt.gz
Lid_Strength_Index
5 4 4 4 5 6 4 2 6 1 1 5 5 7 5 8 5 5 5 5 6 7 7 8 7 8 7 5 5 7 6 8 12 9 6 6 6 8 8 11 12 13 16 16
5 4 4 5 5 5 5 4 4 1 2 7 7 5 6 6 6 6 6 6 5 5 7 9 7 7 5 5 6 7 7 9 12 10 8 6 8 7 8 7 9 12 13 12
5 4 4 4 5 5 5 4 6 4 4 4 6 7 7 7 6 6 5 6 5 6 7 6 8 7 6 5 5 4 4 8 10 12 10 8 9 11 11 8 11 10 10 9
5 5 4 4 5 5 4 3 5 5 7 6 6 6 6 7 7 6 6 6 6 7 8 8 8 7 6 5 6 5 6 10 9 8 8 7 8 8 8 9 8 10 9 9
5 5 5 4 5 6 3 5 6 5 6 6 7 8 8 8 7 7 7 7 6 6 8 8 9 7 7 7 6 6 5 10 9 10 8 8 9 8 8 8 8 8 8 8
5 5 5 5 5 5 4 3 3 6 7 6 7 7 7 7 7 6 6 7 6 7 6 6 5 5 5 6 7 7 7 9 10 13 8 8 11 8 8 8 7 7 9 7
6 6 5 5 5 5 4 4 6 7 8 7 7 7 8 8 8 8 7 7 7 6 5 5 5 6 6 6 6 5 8 9 9 12 10 16 8 6 6 7 6 6 6 6
6 6 5 5 5 5 6 4 5 7 9 7 7 7 8 7 7 8 8 7 6 5 6 9 10 10 9 8 7 7 6 8 11 13 13 10 8 7 7 8 8 5 7 7
6 6 6 5 5 5 6 4 4 7 9 8 8 9 8 9 8 8 7 6 5 6 9 10 13 13 10 10 8 6 6 7 10 11 14 15 9 6 5 7 10 7 6 7
7 8 8 7 7 7 7 6 4 7 9 7 7 9 9 7 8 9 7 7 8 7 10 12 12 12 9 11 10 10 9 10 11 12 13 10 6 5 5 15 14 6 6 6
7 7 8 7 7 7 8 6 4 8 9 8 7 7 9 8 8 10 7 8 8 9 11 11 11 11 10 10 8 9 10 12 12 11 13 14 6 6 9 8 5 5 5 5
7 7 7 7 7 7 8 8 5 5 9 8 7 6 6 6 6 8 7 8 8 7 10 9 9 10 9 9 11 6 10 8 10 11 11 6 5 6 5 5 5 5 5 4
7 7 7 7 7 7 7 7 6 7 9 9 8 8 6 5 6 5 9 7 6 6 5 9 9 11 9 11 10 8 7 5 9 8 7 6 5 5 5 5 6 4 3 3
6 6 7 6 6 6 6 7 6 6 8 11 8 5 6 5 5 6 5 6 5 5 6 8 9 11 8 10 9 9 8 7 7 8 6 5 6 5 4 4 4 4 3 3
6 6 6 6 6 6 6 5 5 5 8 10 9 6 6 6 5 6 5 5 6 7 8 9 10 9 8 8 8 10 8 8 9 9 5 6 5 4 4 5 5 5 4 5
6 5 6 6 6 6 6 8 5 4 5 9 11 6 7 5 5 5 6 5 6 6 8 8 8 6 7 10 10 7 6 4 4 6 4 4 4 3 4 4 4 4 4 4
6 6 6 6 6 6 8 9 6 5 4 8 10 9 7 5 4 5 5 4 6 6 7 7 7 7 5 7 9 6 5 4 4 3 3 4 4 4 3 3 2 2 3 3
5 5 5 5 5 5 7 5 6 5 6 7 10 9 7 4 6 7 4 5 5 5 6 6 6 5 5 8 6 5 4 4 4 3 3 3 3 3 3 2 2 3 3 3
4 5 4 5 6 7 5 4 4 3 5 8 8 10 9 4 6 5 5 4 7 5 6 6 5 7 9 6 5 5 4 4 4 3 3 3 3 3 3 3 3 3 3 3
4 4 6 8 5 3 3 5 6 6 6 6 8 6 8 5 6 6 6 5 7 8 6 5 7 8 5 4 4 4 4 3 3 5 5 4 4 4 4 3 3 3 3 3
4 6 6 3 2 4 5 8 8 7 9 7 6 6 7 4 7 7 5 7 7 10 8 8 8 8 6 5 4 4 4 3 3 4 3 4 4 4 4 3 3 3 2 3
4 3 2 3 5 7 9 8 7 8 9 6 6 5 4 4 3 6 5 7 7 10 5 8 10 7 4 5 5 4 4 3 3 3 3 3 3 3 3 3 3 2 2 2
2 4 6 6 6 10 11 12 9 9 6 5 4 6 4 4 5 7 7 10 10 5 9 10 8 6 5 4 4 4 3 3 3 3 3 3 4 3 3 3 2 2 2 2
4 7 10 8 10 8 8 7 6 5 5 5 5 6 7 5 7 7 10 8 7 10 11 10 9 6 5 4 4 4 4 4 4 4 3 4 3 4 3 3 2 2 3 2
5 5 10 8 5 5 4 4 4 4 4 5 5 5 6 7 9 8 8 10 12 10 10 9 7 6 5 5 4 4 5 4 4 4 4 4 3 3 3 3 2 3 3 3
4 4 6 5 6 6 5 5 5 3 4 3 4 7 9 10 8 10 11 10 11 9 8 7 6 6 5 4 4 4 3 3 4 4 3 3 4 4 4 3 3 2 2 3
5 5 4 4 5 5 5 4 4 3 4 6 6 10 10 7 10 10 8 9 7 6 5 4 4 4 4 4 4 4 4 4 3 4 4 4 4 3 3 4 3 3 3 2

GFSNW_con_lsi_279.txt.gz
Lid_Strength_Index
5 5 5 5 5 5 5 5 8 2 3 7 7 9 7 7 6 5 6 6 7 8 8 9 9 9 8 6 6 9 9 11 14 11 7 7 9 11 12 15 14 16 16 16
5 5 5 5 5 5 7 7 5 1 3 10 9 7 6 5 6 6 6 6 6 7 9 11 8 8 6 6 7 9 9 12 15 13 10 9 10 9 10 12 13 14 16 14
5 5 5 5 5 5 6 6 9 5 5 6 8 8 8 7 6 6 6 7 6 8 9 8 9 8 6 6 6 4 6 11 13 15 12 10 11 9 10 12 16 14 13 12
5 5 5 5 5 5 6 5 7 6 9 8 7 8 8 8 7 6 6 7 7 8 12 10 10 8 7 6 6 7 9 13 12 10 9 9 9 9 9 12 12 13 11 11
6 5 4 4 5 5 4 6 7 6 8 6 7 8 9 8 8 7 8 8 7 7 10 10 11 9 9 10 7 9 8 13 12 12 9 9 10 9 9 9 9 10 10 10
6 6 5 4 4 5 5 4 4 6 7 7 8 8 8 7 7 7 7 8 9 9 9 8 8 9 8 8 10 10 10 12 13 15 10 10 13 10 9 9 8 9 11 9
6 6 5 5 4 5 7 4 5 8 9 7 7 7 7 8 8 9 7 8 9 8 7 7 8 9 8 8 8 8 11 12 12 15 12 18 10 7 7 8 8 8 8 9
5 6 6 5 4 4 7 5 5 7 9 7 7 8 8 8 8 9 9 7 8 7 9 12 13 13 12 10 9 9 8 11 14 16 16 12 10 8 9 9 10 8 9 8
5 6 6 5 5 4 6 5 3 6 9 8 7 8 8 11 11 10 8 8 7 9 11 13 16 16 11 12 10 8 8 9 12 14 17 18 11 7 6 7 13 8 8 8
6 6 6 6 5 5 6 7 3 7 9 7 7 9 10 9 11 12 10 10 10 9 12 14 15 15 11 14 13 12 12 12 13 14 15 12 8 7 6 14 14 8 7 7
6 7 7 7 6 6 7 8 4 8 10 10 8 8 9 10 10 13 10 11 11 12 14 14 13 14 12 13 11 11 12 14 14 12 14 16 7 8 12 10 8 7 7 7
6 7 7 7 7 7 7 10 5 6 10 10 9 9 8 8 9 10 10 10 10 10 12 12 12 13 12 12 15 9 13 11 12 12 13 8 7 8 7 6 7 6 6 6
6 6 7 7 7 7 7 9 7 7 10 10 10 10 8 7 7 7 11 9 8 8 8 11 12 14 12 15 14 13 10 8 10 11 9 8 6 6 5 5 6 5 5 5
6 6 7 7 6 7 7 8 7 7 9 12 10 6 7 5 6 7 7 7 7 8 9 11 12 13 10 13 12 13 11 10 11 11 10 7 7 6 6 5 5 5 4 4
6 6 6 6 6 6 7 7 6 6 9 13 11 8 7 7 7 7 7 8 9 10 11 11 13 11 12 11 11 13 11 12 12 12 9 9 8 6 5 7 7 6 6 6
5 6 5 5 6 6 7 9 6 6 6 11 13 8 8 7 7 8 8 8 8 9 11 11 10 9 10 13 14 10 9 8 8 9 7 7 6 5 5 5 5 5 5 6
5 5 6 6 6 7 9 10 7 6 6 10 12 12 8 7 7 7 7 7 8 9 9 9 9 9 9 11 13 9 7 6 6 5 5 7 6 6 4 4 4 3 4 4
5 6 6 6 6 6 8 6 5 6 8 9 13 12 10 6 9 10 6 8 7 8 8 8 9 8 8 11 8 7 6 5 5 5 4 5 4 5 5 4 4 4 4 4
5 5 5 6 7 8 7 4 5 6 8 11 10 12 12 6 8 7 7 6 9 6 9 9 8 9 11 9 7 6 5 6 5 4 4 5 5 4 4 4 4 4 4 4
5 6 8 9 6 3 4 7 8 8 8 8 11 8 10 7 8 9 8 7 10 12 10 7 9 9 7 6 5 5 5 5 5 6 6 6 6 5 5 5 4 4 4 3
6 7 7 4 2 5 7 9 10 9 10 8 8 8 9 6 9 9 7 9 9 12 10 9 10 10 7 5 5 4 4 4 5 5 4 5 5 5 5 4 4 4 3 3
5 6 4 4 7 8 10 10 9 10 11 8 8 7 7 5 5 8 7 9 8 12 7 9 11 8 6 5 5 4 4 4 4 4 4 4 4 4 4 4 4 4 3 3
3 6 7 7 8 12 12 13 11 10 7 6 6 7 6 6 6 9 9 11 11 7 10 11 9 7 6 6 5 5 4 4 4 4 4 3 4 3 3 4 3 3 3 3
6 8 13 10 11 10 9 9 8 6 5 6 6 7 8 7 9 8 11 9 8 12 12 11 9 7 6 5 4 5 5 4 4 4 4 4 4 4 3 3 3 3 4 3
7 7 12 10 8 7 6 5 5 5 4 5 7 7 7 9 10 9 9 11 12 11 11 10 8 6 6 5 5 5 5 4 4 4 4 4 4 4 4 3 3 3 3 3
5 6 8 6 6 7 6 6 6 4 4 5 6 8 10 10 10 11 11 11 12 10 8 7 6 6 5 5 5 4 4 4 4 4 4 4 4 4 4 3 3 3 3 3
6 6 4 5 5 6 5 5 5 3 5 8 7 10 10 8 11 11 8 10 8 7 6 5 5 5 5 4 4 4 4 4 4 4 4 5 4 4 4 4 4 3 3 3

GFSNW_con_lsi_285.txt.gz
Lid_Strength_Index
5 4 4 5 5 6 8 10 10 4 6 9 11 11 9 7 6 6 8 8 8 9 9 10 10 10 9 7 8 11 11 12 14 12 9 8 10 12 13 16 16 16 16 16
5 4 4 5 5 6 10 12 10 6 6 12 12 10 8 6 7 8 7 8 7 7 10 12 9 8 7 6 8 9 10 13 16 14 12 10 11 10 11 12 13 16 17 15
4 4 5 5 5 5 10 10 10 9 8 9 10 11 10 10 7 8 7 8 8 9 10 10 10 9 7 7 7 5 7 12 14 16 15 12 12 11 11 12 15 15 14 12
4 5 4 4 5 5 8 9 11 10 12 10 10 10 10 10 10 8 9 10 9 10 12 11 11 9 8 7 6 9 12 14 12 11 10 10 11 11 11 12 12 14 12 12
4 5 4 4 5 5 8 11 11 11 11 10 10 10 11 10 9 10 10 11 9 10 11 11 11 10 11 11 9 10 11 14 13 13 10 10 12 10 10 10 10 11 11 12
4 5 4 4 4 6 9 9 10 10 11 11 11 11 10 9 10 9 9 9 10 11 10 10 11 11 10 11 12 12 12 13 14 16 11 12 14 11 11 11 10 11 13 11
5 5 5 4 4 7 10 10 10 12 13 11 10 8 9 9 9 10 8 9 11 9 9 11 11 12 11 11 11 11 12 13 14 15 14 19 12 10 9 10 10 10 10 10
6 6 6 5 5 5 11 11 10 12 14 11 10 9 9 9 10 10 9 8 9 9 12 14 15 15 14 13 12 12 12 13 15 16 17 14 12 10 10 11 12 9 10 9
5 6 7 6 6 6 10 11 9 11 12 12 9 10 10 12 13 11 10 9 9 10 13 15 18 18 15 15 14 11 12 13 15 17 18 19 13 9 7 8 14 9 9 9
5 5 6 6 6 6 11 11 10 10 12 11 11 12 12 11 12 13 12 11 11 11 15 16 18 17 14 17 17 16 15 15 16 17 17 15 11 8 7 15 14 8 8 8
5 5 6 6 5 5 10 11 10 10 12 12 10 9 12 11 12 14 12 12 12 13 15 15 16 16 15 16 15 15 16 16 17 17 18 18 10 8 12 10 8 7 8 8
5 6 6 6 6 5 8 11 9 9 11 11 10 9 8 9 10 12 13 12 12 12 15 15 16 16 16 17 18 13 15 13 15 13 14 10 9 9 8 7 7 7 7 6
5 6 6 6 6 6 8 11 10 10 12 12 12 11 9 9 9 9 13 12 11 12 12 15 17 17 16 18 17 15 13 12 14 13 10 10 10 9 6 6 6 5 5 5
5 6 6 6 6 6 7 11 10 11 12 16 14 9 11 8 9 9 10 11 12 13 14 15 17 17 15 17 15 15 13 13 13 13 12 10 9 10 9 9 8 5 4 5
6 6 6 7 7 6 8 9 9 9 12 15 14 11 10 10 9 10 10 11 13 14 16 16 16 15 15 16 16 17 13 13 13 13 11 12 11 8 7 8 9 8 7 5
5 5 6 7 6 7 9 11 10 9 10 14 16 12 11 10 9 10 11 11 13 14 14 15 15 13 14 17 18 14 11 11 12 13 10 10 9 8 7 8 7 7 7 7
5 5 6 6 6 10 11 12 10 7 10 13 15 15 12 10 11 11 12 12 13 13 14 14 14 13 13 17 19 13 11 11 10 10 10 10 9 9 7 6 6 5 5 6
5 5 5 6 6 8 11 9 7 9 11 12 16 15 14 11 13 13 12 13 13 13 13 14 14 14 14 17 13 11 10 9 9 9 8 8 8 7 7 6 7 7 6 6
4 5 5 8 10 11 10 5 7 9 10 15 15 17 18 12 14 13 13 13 15 13 14 14 14 15 16 12 12 11 9 9 9 7 8 7 7 7 6 6 6 6 6 5
4 7 9 12 10 5 6 9 11 12 12 13 15 15 16 14 14 15 14 14 15 16 13 12 14 14 11 9 9 9 8 8 7 9 9 8 7 6 6 6 5 5 5 4
8 10 9 8 5 9 11 13 14 14 15 14 14 14 16 12 15 15 14 15 15 17 14 13 16 15 11 7 7 6 6 5 5 5 5 5 6 6 5 5 4 4 4 5
7 8 7 9 10 12 14 15 14 14 15 13 13 12 12 11 10 13 12 14 14 15 12 14 16 12 8 6 5 5 5 5 4 4 4 4 4 4 4 4 4 4 4 3
7 9 10 12 12 18 16 16 15 15 12 11 11 12 11 11 11 14 12 13 14 11 14 14 12 10 6 6 5 5 4 4 4 4 4 4 4 3 4 4 3 3 3 3
10 12 18 15 16 15 15 14 14 12 11 11 11 14 14 13 13 12 13 12 11 13 14 13 11 8 6 6 5 5 5 5 5 5 4 4 4 4 4 3 3 3 4 4
11 12 18 14 12 12 12 11 12 11 10 10 11 11 12 13 13 11 11 12 13 12 13 12 9 8 7 6 5 5 5 5 5 5 5 5 5 4 4 3 3 3 4 4
9 10 12 12 13 13 13 12 11 10 9 9 9 11 13 13 11 13 12 13 13 13 11 9 9 8 7 6 6 5 5 5 5 6 6 5 5 4 4 3 3 4 4 4
10 12 11 12 12 12 11 11 10 8 9 11 11 12 12 11 13 12 11 12 11 10 10 9 9 9 8 7 6 6 6 6 6 6 5 5 4 4 5 5 4 3 3 3

GFSNW_con_lsi_291.txt.gz
Lid_Strength_Index
3 4 4 4 4 5 6 7 6 3 3 6 7 8 8 7 6 5 7 7 7 8 8 9 9 9 8 6 6 8 7 8 10 10 8 7 7 9 9 11 12 12 13 12
4 4 4 4 4 4 6 7 7 2 3 9 8 7 7 6 6 6 6 7 6 6 8 10 8 8 6 6 7 7 7 9 11 11 9 7 9 9 9 10 10 13 13 10
4 4 4 4 4 4 6 5 7 5 6 7 7 8 8 8 6 7 6 6 6 7 8 7 9 9 7 6 7 6 5 9 10 11 10 8 10 9 9 9 11 10 10 9
4 4 4 4 4 4 5 6 7 7 8 8 7 7 8 8 8 6 6 7 7 8 10 9 9 8 7 7 6 6 7 10 9 9 10 9 9 9 9 10 9 11 10 10
4 4 4 4 4 5 5 6 7 8 8 8 8 9 8 9 8 8 7 8 7 7 9 8 9 8 8 8 7 7 7 10 9 10 9 9 10 9 9 9 9 9 9 9
3 4 5 4 4 5 6 6 6 7 10 9 8 8 8 8 8 7 7 7 7 8 7 7 7 6 6 6 7 8 9 10 11 12 10 10 12 10 9 8 8 8 10 7
4 4 5 4 4 6 5 6 6 7 10 9 8 8 8 9 9 9 8 7 7 7 6 7 7 8 8 8 8 6 9 10 10 12 11 16 9 8 8 8 8 7 7 7
5 5 5 4 4 5 5 6 6 7 9 9 9 8 9 8 8 8 8 8 7 7 7 8 9 9 9 9 9 8 7 9 11 13 13 11 10 9 9 9 9 7 7 7
5 5 6 5 4 5 5 6 6 6 8 9 8 9 9 9 9 9 9 8 7 7 9 8 11 12 10 11 10 8 8 7 10 12 14 16 11 8 7 7 11 6 7 7
5 5 6 6 6 5 6 7 6 5 7 7 7 8 9 9 10 9 9 9 9 8 10 10 11 11 10 12 11 11 10 10 12 12 13 11 8 8 6 12 10 7 6 7
5 5 6 6 7 7 6 7 6 6 7 7 7 7 8 9 9 9 9 9 9 9 10 10 10 11 10 11 10 10 10 11 12 12 13 14 8 7 10 8 6 6 6 6
4 5 6 6 6 7 9 8 7 7 6 7 7 7 6 7 7 8 10 10 10 9 10 10 10 11 10 10 12 9 11 9 10 10 9 7 6 6 5 5 6 5 5 5
4 5 5 6 6 7 8 8 8 8 8 9 9 9 8 7 7 6 9 9 8 8 8 8 9 10 9 11 11 10 9 9 10 10 8 8 7 5 4 5 6 6 5 4
3 4 5 5 6 6 8 7 8 8 9 10 9 7 8 6 6 6 6 7 7 7 7 8 9 10 9 10 10 10 9 10 11 11 10 10 9 8 8 8 8 8 8 8
4 4 5 5 6 7 7 7 7 7 8 10 10 8 7 7 7 7 7 6 7 8 9 10 10 9 10 11 12 12 10 10 12 11 8 9 9 7 7 8 8 8 8 8
3 4 5 5 6 7 7 10 8 7 7 9 11 8 9 9 8 8 8 8 9 9 10 11 11 11 11 13 14 10 9 9 8 9 8 9 8 8 7 7 7 7 6 6
4 4 5 6 7 7 9 10 8 7 7 11 12 12 10 9 9 9 9 9 9 9 10 11 11 11 11 13 15 11 10 9 9 8 9 10 8 9 7 6 6 5 5 4
4 5 5 6 7 8 9 8 7 8 10 10 13 13 12 10 11 11 10 10 10 10 10 11 11 11 11 14 11 10 9 9 9 8 7 8 7 6 6 5 5 5 5 4
5 5 6 8 9 10 9 6 7 8 10 13 13 14 14 10 11 10 10 10 12 11 11 11 11 12 14 11 10 9 8 9 8 7 7 6 6 6 5 5 5 5 4 3
4 7 9 11 9 5 5 8 11 11 10 11 13 12 13 11 11 12 11 11 11 13 11 11 12 12 9 8 7 7 7 6 7 8 7 6 5 5 4 4 3 3 3 3
7 9 9 7 5 8 10 12 13 13 14 12 12 13 14 11 12 12 12 12 12 15 13 12 13 13 9 7 7 6 6 6 6 4 4 3 3 4 4 3 3 3 2 3
6 6 6 7 9 11 13 13 12 13 14 12 12 11 11 10 9 10 11 12 12 15 11 13 14 10 8 8 7 6 4 4 3 3 3 3 3 3 3 3 3 3 2 2
6 7 10 10 11 15 15 16 14 14 11 11 11 11 10 9 9 10 10 13 13 9 13 13 11 8 8 6 5 4 3 3 3 3 3 3 3 2 2 3 2 2 2 2
9 11 14 13 14 14 13 12 11 10 10 10 10 10 10 10 10 10 13 11 10 13 14 13 8 6 6 5 4 4 4 3 3 3 3 3 3 3 2 2 2 3 3 3
10 11 15 13 12 11 11 11 10 10 9 9 9 10 9 10 10 9 11 12 13 12 12 8 5 5 4 4 4 4 4 4 4 4 4 4 4 4 4 3 3 4 4 4
9 10 13 12 12 12 11 10 10 9 8 8 7 9 10 11 10 11 12 12 12 9 7 5 5 5 5 5 5 4 4 5 5 4 5 5 5 5 5 4 4 4 4 4
11 11 10 11 10 10 10 9 9 7 7 9 8 11 11 8 10 11 9 10 8 7 6 6 5 6 5 5 5 5 5 4 4 5 5 6 4 4 4 5 4 4 3 3